Weather Roundup
Issued by NWS

Home | Current Version | Previous Version | Graphics & Text | Print | Product List | Glossary Off
Versions: 1 2 3 4 5 6 7 8 9 10 11 12 13 14 15 16 17 18 19 20 21 22 23 24 25 26 27 28 29 30 31 32 33 34 35 36 37 38 39 40 41 42 43 44 45 46 47 48 49 50

688
NZUS93 KARX 271910
HRRWXR

CURRENT HOURLY OBSERVATIONS ACROSS
MUCH OF THE UPPER MISSISSIPPI VALLEY
NATIONAL WEATHER SERVICE LA CROSSE WI
200 PM CDT WED APR 27 2016


...SOUTHEAST MINNESOTA...


CITY           SKY/WX    TMP DP  RH WIND       PRES   REMARKS
ROCHESTER      LGT RAIN  45  34  65 E18G29    29.79F
ROCHESTER/MAYO CLOUDY    48  29  49 E16G29    29.80F
WINONA         PTSUNNY   55  27  33 E20G28    29.85F
AUSTIN         RAIN      43  36  75 E16G25    29.78R
ALBERT LEA     CLOUDY    39  39 100 E17G25    29.77R WCI  30
DODGE CENTER   LGT RAIN  41  36  81 E23G31    29.77F
PRESTON        LGT RAIN  43  33  68 E17       29.80S
OWATONNA       LGT RAIN  45  34  65 E20G26    29.77S
FARIBAULT      CLOUDY    50  25  37 E22G28    29.79F
$$

...ELSEWHERE IN MINNESOTA...


CITY           SKY/WX    TMP DP  RH WIND       PRES   REMARKS
MINNEAPOLIS    CLOUDY    52  25  35 E32G40    29.84F
INTNL FALLS    CLOUDY    52  18  26 NE10G22   30.08F
DULUTH         SUNNY     42  16  34 E28G35    30.05S
RED WING       CLOUDY    55  21  26 E20G35    29.82F
REDWOOD FALLS  RAIN      41  35  79 E13       29.80R
MANKATO        CLOUDY    43  32  65 E20G31    29.76R
WORTHINGTON    LGT RAIN  39  37  92 E23G29    29.70R FOG     WCI  28
FAIRMONT       CLOUDY    41  25  52 E15       29.75F
$$

...SOUTHWEST WISCONSIN...


CITY           SKY/WX    TMP DP  RH WIND       PRES   REMARKS
LA CROSSE      CLOUDY    55  23  28 E17G29    29.85F
PRAIRIE DU CHI LGT RAIN  49  31  51 E15G21    29.81R
BOSCOBEL       LGT RAIN  51  29  42 E16G29    29.81F
LONE ROCK      LGT RAIN  50  29  44 E24G32    29.87F
PLATTEVILLE    CLOUDY    49  37  64 E18G25    29.84R
FORT MC COY    CLOUDY    55  27  33 E22G29    29.90S
CAMP DOUGLAS   PTSUNNY   54  32  43 E18G28    29.91S
MAUSTON-NEW LI NOT AVBL
VIROQUA        CLOUDY    48  30  50 E23G29    29.85F
WIS DELLS      CLOUDY    54  22  28 E18G28    29.91S
$$

...ELSEWHERE IN WISCONSIN...


CITY           SKY/WX    TMP DP  RH WIND       PRES   REMARKS
MILWAUKEE      CLOUDY    45  35  68 NE16      29.93F
MADISON        CLOUDY    54  23  30 E21G29    29.91S
GREEN BAY      MOSUNNY   49  32  52 NE23      30.02F
EAU CLAIRE     CLOUDY    53  23  31 E17G29    29.90F
BLACK RVR FLS  FAIR      55  22  27 E17G24    29.91S
MEDFORD        CLOUDY    53  24  32 E14G22    29.94S
WAUSAU         CLOUDY    56  22  26 E17       29.95F
WIS RAPIDS     CLOUDY    52  21  29 E20G28    29.95F
MARSHFIELD     CLOUDY    53  24  32 E17G23    29.93F
RICE LAKE      PTSUNNY   55  18  23 E17G28    29.93S
$$

...NORTHEAST IOWA...


CITY           SKY/WX    TMP DP  RH WIND       PRES   REMARKS
WATERLOO       LGT RAIN  44  41  89 E17G29    29.76S
DUBUQUE        CLOUDY    47  41  80 E16G24    29.79F
DECORAH        LGT RAIN  45  37  76 E17G28    29.78S
MASON CITY     LGT RAIN  42  40  92 E18       29.76F FOG
CHARLES CITY   LGT RAIN  43  41  93 E18G26    29.79R
OELWEIN        LGT RAIN  43  41  93 E20G26    29.80R
$$

...ELSEWHERE IN IOWA...


CITY           SKY/WX    TMP DP  RH WIND       PRES   REMARKS
DES MOINES     DRIZZLE   50  47  89 E15       29.63F FOG
IOWA CITY      CLOUDY    49  46  90 E13       29.76S
FORT DODGE     CLOUDY    46  39  76 E20G26    29.69R
MARSHALLTOWN   CLOUDY    47  44  90 E22       29.72S
CEDAR RAPIDS   CLOUDY    47  46  97 E17G31    29.74R
$$

...NORTHERN ILLINOIS...


CITY           SKY/WX    TMP DP  RH WIND       PRES   REMARKS
CHICAGO-OHARE  CLOUDY    47  39  74 NE17      29.87F
CHICAGO-MIDWAY CLOUDY    50  39  66 NE24      29.87S
MOLINE         LGT RAIN  50  46  86 E17       29.79R FOG
ROCKFORD       LGT RAIN  48  40  73 E14       29.91R
PEORIA         HVY RAIN  54  50  86 E22       29.75F FOG
$$

NOTE: "FAIR" INDICATES FEW OR NO CLOUDS BELOW 12,000 FEET WITH NO
SIGNIFICANT WEATHER AND/OR OBSTRUCTIONS TO VISIBILITY. WIND
SPEEDS ARE IN MILES-PER-HOUR.




USA.gov is the U.S. government's official web portal to all federal, state and local government web resources and services.